Погода в Пиньяйсе

Бразилия     25°25′59″S   49°11′07″W
темп.,
°C
ветер,
м/с
пор.,
м/с
влажн.,
%
обл.,
%
осадки,
мм/ч
давл.,
гПа
погр.,
м
27 февраля, сб
сб2700:00+19юв498389 0.1 1016767
03:00+18юв388794 0.1 1015578
06:00+18юв388595 0.1 1015605
09:00+19юв378196 0.1 1016597
12:00+24юв466383 0.7 1016977
15:00+23юв597362 7.3 1015929
18:00+19вюв5108697 3.1 1015762
21:00+19вюв5118899 3.6 1017789
28 февраля, вс
вс2800:00+18вюв41088100 0.4 1016750
03:00+18юв388997 0.6 1014520
06:00+18ююв2590100 0.2 1015340
09:00+19юв2488100 0.5 1016355
12:00+20вюв2377100 0.3 1015508
15:00+20в2383100 1.0 1012254
18:00+20в358391 1.6 1012283
21:00+18всв259169 2.4 1014287
1 марта, пн
пн100:00+18всв249286 0.0 1014286
03:00+18св139187 0.0 1012206
06:00+18св118782 0.1 1013102
09:00+23ссв266342 0.1 1014820
12:00+28ссз34433 0.2 10121824
15:00+27ссв125632 2.7 1010937
18:00+23всв346746 9.1 1010382
21:00+22всв257172 12.1 1012264
2 марта, вт
вт200:00+21св2478100 0.2 1014228
03:00+20ссв2675100 0.8 1012271
06:00+20с397598 0.1 1013490
09:00+24ссз376072 0.2 1014928
12:00+27ссз245232 4.9 10131308
15:00+28с235057 11.2 10111369
18:00+24всв2468100 12.8 1011272
21:00+21всв2383100 24.1 1015256
3 марта, ср
ср300:00+18вюв3785100 16.6 1016347
03:00+19ссв3783100 20.5 1015287
06:00+18зсз2585100 0.0 1015209
09:00+24сз266483 0.0 1016541
12:00+28зсз23495 1.9 10141338
15:00+28юв125135 6.0 10131231
18:00+24всв3467100 1.6 1013562
21:00+21в3682100 4.3 1015258